Time,TemperatureF,DewpointF,PressureIn,WindDirection,WindDirectionDegrees,WindSpeedMPH,WindSpeedGustMPH,Humidity,HourlyPrecipIn,Conditions,Clouds,dailyrainin,SoftwareType,DateUTC
2013-05-26 00:01:00,44.4,19.8,21.82,NE,45,0.0,0.0,37,0.00,,---,0.00,VWS V14.01,2013-05-26 06:01:00,
2013-05-26 00:06:00,44.4,19.1,21.82,NE,45,0.0,0.0,36,0.00,,---,0.00,VWS V14.01,2013-05-26 06:06:00,
2013-05-26 00:11:00,44.1,19.5,21.82,NE,45,2.7,2.7,37,0.00,,---,0.00,VWS V14.01,2013-05-26 06:11:00,
2013-05-26 00:16:00,45.7,19.6,21.82,NE,45,0.0,0.0,35,0.00,,---,0.00,VWS V14.01,2013-05-26 06:16:00,
2013-05-26 00:21:00,44.6,19.3,21.82,NE,45,0.0,0.0,36,0.00,,---,0.00,VWS V14.01,2013-05-26 06:21:00,
2013-05-26 00:26:00,44.1,18.8,21.82,NE,45,0.0,0.0,36,0.00,,---,0.00,VWS V14.01,2013-05-26 06:26:00,
2013-05-26 00:31:00,43.7,19.1,21.82,NE,45,0.0,0.0,37,0.00,,---,0.00,VWS V14.01,2013-05-26 06:31:00,
2013-05-26 00:36:00,43.3,18.2,21.82,NE,45,0.0,0.0,36,0.00,,---,0.00,VWS V14.01,2013-05-26 06:36:00,
2013-05-26 00:41:00,43.0,18.5,21.82,North,0,0.0,0.0,37,0.00,,---,0.00,VWS V14.01,2013-05-26 06:41:00,
2013-05-26 00:46:00,42.4,18.0,21.82,North,0,0.0,0.0,37,0.00,,---,0.00,VWS V14.01,2013-05-26 06:46:00,
2013-05-26 00:51:00,42.4,18.0,21.82,North,0,0.0,0.0,37,0.00,,---,0.00,VWS V14.01,2013-05-26 06:51:00,
2013-05-26 00:56:00,42.1,18.3,21.82,North,0,0.0,0.0,38,0.00,,---,0.00,VWS V14.01,2013-05-26 06:56:00,
2013-05-26 01:01:00,41.7,18.0,21.82,North,0,0.0,0.0,38,0.00,,---,0.00,VWS V14.01,2013-05-26 07:01:00,
2013-05-26 01:06:00,42.3,17.9,21.82,North,0,0.0,0.0,37,0.00,,---,0.00,VWS V14.01,2013-05-26 07:06:00,
2013-05-26 01:11:00,41.7,17.4,21.82,North,0,0.0,0.0,37,0.00,,---,0.00,VWS V14.01,2013-05-26 07:11:00,
2013-05-26 01:16:00,41.5,17.8,21.82,North,0,0.0,0.0,38,0.00,,---,0.00,VWS V14.01,2013-05-26 07:16:00,
2013-05-26 01:21:00,42.1,17.1,21.82,North,0,3.1,3.1,36,0.00,,---,0.00,VWS V14.01,2013-05-26 07:21:00,
2013-05-26 01:26:00,41.9,17.5,21.82,North,0,0.0,0.0,37,0.00,,---,0.00,VWS V14.01,2013-05-26 07:26:00,
2013-05-26 01:32:00,41.4,17.7,21.82,North,0,2.2,2.7,38,0.00,,---,0.00,VWS V14.01,2013-05-26 07:32:00,
2013-05-26 01:37:00,41.2,17.5,21.82,North,0,0.0,0.0,38,0.00,,---,0.00,VWS V14.01,2013-05-26 07:37:00,
2013-05-26 01:42:00,41.0,17.4,21.82,North,0,0.0,0.0,38,0.00,,---,0.00,VWS V14.01,2013-05-26 07:42:00,
2013-05-26 01:47:00,41.4,17.7,21.82,North,0,0.0,0.0,38,0.00,,---,0.00,VWS V14.01,2013-05-26 07:47:00,
2013-05-26 01:52:00,40.8,17.2,21.82,North,0,0.0,0.0,38,0.00,,---,0.00,VWS V14.01,2013-05-26 07:52:00,
2013-05-26 01:57:00,40.8,17.8,21.82,North,0,0.0,0.0,39,0.00,,---,0.00,VWS V14.01,2013-05-26 07:57:00,
2013-05-26 02:02:00,41.2,17.5,21.82,North,0,0.0,0.0,38,0.00,,---,0.00,VWS V14.01,2013-05-26 08:02:00,
2013-05-26 02:07:00,42.3,18.5,21.82,North,0,0.0,2.7,38,0.00,,---,0.00,VWS V14.01,2013-05-26 08:07:00,
2013-05-26 02:12:00,42.3,18.5,21.82,NNE,22,0.0,0.0,38,0.00,,---,0.00,VWS V14.01,2013-05-26 08:12:00,
2013-05-26 02:17:00,43.3,18.8,21.82,NNE,22,0.0,0.0,37,0.00,,---,0.00,VWS V14.01,2013-05-26 08:17:00,
2013-05-26 02:22:00,44.8,18.8,21.82,NNE,22,0.0,0.0,35,0.00,,---,0.00,VWS V14.01,2013-05-26 08:22:00,
2013-05-26 02:27:00,46.6,19.7,21.82,NNE,22,0.0,0.0,34,0.00,,---,0.00,VWS V14.01,2013-05-26 08:27:00,
2013-05-26 02:32:00,48.6,20.8,21.82,NNE,22,0.0,0.0,33,0.00,,---,0.00,VWS V14.01,2013-05-26 08:32:00,
2013-05-26 02:37:00,49.6,21.0,21.82,NNE,22,0.0,0.0,32,0.00,,---,0.00,VWS V14.01,2013-05-26 08:37:00,
2013-05-26 02:42:00,50.5,20.3,21.82,North,0,0.0,0.0,30,0.00,,---,0.00,VWS V14.01,2013-05-26 08:42:00,
2013-05-26 02:47:00,51.3,20.9,21.82,North,0,0.0,0.0,30,0.00,,---,0.00,VWS V14.01,2013-05-26 08:47:00,
2013-05-26 02:52:00,51.1,20.8,21.82,NNE,22,0.0,0.0,30,0.00,,---,0.00,VWS V14.01,2013-05-26 08:52:00,
2013-05-26 02:57:00,51.1,20.8,21.82,East,90,3.1,3.6,30,0.00,,---,0.00,VWS V14.01,2013-05-26 08:57:00,
2013-05-26 03:02:00,51.3,20.9,21.82,SW,225,0.0,0.0,30,0.00,,---,0.00,VWS V14.01,2013-05-26 09:02:00,
2013-05-26 03:07:00,50.9,20.6,21.82,West,270,0.0,0.0,30,0.00,,---,0.00,VWS V14.01,2013-05-26 09:07:00,
2013-05-26 03:12:00,50.7,20.4,21.82,WNW,292,0.0,0.0,30,0.00,,---,0.00,VWS V14.01,2013-05-26 09:12:00,
2013-05-26 03:17:00,50.7,20.4,21.82,NW,315,0.0,0.0,30,0.00,,---,0.00,VWS V14.01,2013-05-26 09:17:00,
2013-05-26 03:22:00,50.2,20.0,21.82,NW,315,0.0,0.0,30,0.00,,---,0.00,VWS V14.01,2013-05-26 09:22:00,
2013-05-26 03:28:00,49.8,20.4,21.82,NW,315,0.0,0.0,31,0.00,,---,0.00,VWS V14.01,2013-05-26 09:28:00,
2013-05-26 03:33:00,48.7,20.2,21.82,NW,315,0.0,0.0,32,0.00,,---,0.00,VWS V14.01,2013-05-26 09:33:00,
2013-05-26 03:38:00,48.4,19.2,21.82,NW,315,0.0,0.0,31,0.00,,---,0.00,VWS V14.01,2013-05-26 09:38:00,
2013-05-26 03:43:00,46.9,19.4,21.82,NW,315,0.0,0.0,33,0.00,,---,0.00,VWS V14.01,2013-05-26 09:43:00,
2013-05-26 03:48:00,45.5,18.8,21.82,NW,315,0.0,0.0,34,0.00,,---,0.00,VWS V14.01,2013-05-26 09:48:00,
2013-05-26 03:53:00,45.1,19.1,21.82,NW,315,0.0,0.0,35,0.00,,---,0.00,VWS V14.01,2013-05-26 09:53:00,
2013-05-26 03:58:00,44.8,18.8,21.82,NW,315,0.0,0.0,35,0.00,,---,0.00,VWS V14.01,2013-05-26 09:58:00,
2013-05-26 04:03:00,44.1,18.8,21.82,NW,315,0.0,0.0,36,0.00,,---,0.00,VWS V14.01,2013-05-26 10:03:00,
2013-05-26 04:08:00,44.1,18.8,21.82,NW,315,0.0,0.0,36,0.00,,---,0.00,VWS V14.01,2013-05-26 10:08:00,
2013-05-26 04:13:00,43.7,17.9,21.82,NW,315,0.0,0.0,35,0.00,,---,0.00,VWS V14.01,2013-05-26 10:13:00,
2013-05-26 04:18:00,44.1,18.2,21.82,NW,315,0.0,0.0,35,0.00,,---,0.00,VWS V14.01,2013-05-26 10:18:00,
2013-05-26 04:23:00,43.9,18.7,21.82,NW,315,0.0,0.0,36,0.00,,---,0.00,VWS V14.01,2013-05-26 10:23:00,
2013-05-26 04:28:00,44.1,19.5,21.82,NW,315,0.0,0.0,37,0.00,,---,0.00,VWS V14.01,2013-05-26 10:28:00,
2013-05-26 04:33:00,45.1,19.1,21.82,East,90,4.9,5.4,35,0.00,,---,0.00,VWS V14.01,2013-05-26 10:33:00,
2013-05-26 04:38:00,45.5,19.5,21.79,ESE,112,3.1,3.6,35,0.00,,---,0.00,VWS V14.01,2013-05-26 10:38:00,
2013-05-26 04:43:00,45.5,20.1,21.79,ESE,112,3.6,3.6,36,0.00,,---,0.00,VWS V14.01,2013-05-26 10:43:00,
2013-05-26 04:48:00,45.3,19.3,21.79,ESE,112,0.0,0.0,35,0.00,,---,0.00,VWS V14.01,2013-05-26 10:48:00,
2013-05-26 04:53:00,45.0,19.0,21.82,ESE,112,0.0,0.0,35,0.00,,---,0.00,VWS V14.01,2013-05-26 10:53:00,
2013-05-26 04:58:00,44.8,18.8,21.82,ESE,112,0.0,0.0,35,0.00,,---,0.00,VWS V14.01,2013-05-26 10:58:00,
2013-05-26 05:03:00,45.0,19.0,21.82,ESE,112,0.0,0.0,35,0.00,,---,0.00,VWS V14.01,2013-05-26 11:03:00,
2013-05-26 05:08:00,45.0,19.0,21.82,ESE,112,0.0,0.0,35,0.00,,---,0.00,VWS V14.01,2013-05-26 11:08:00,
2013-05-26 05:13:00,45.0,19.0,21.82,ESE,112,0.0,0.0,35,0.00,,---,0.00,VWS V14.01,2013-05-26 11:13:00,
2013-05-26 05:18:00,44.4,18.5,21.82,ESE,112,0.0,0.0,35,0.00,,---,0.00,VWS V14.01,2013-05-26 11:18:00,
2013-05-26 05:23:00,44.1,18.2,21.79,ESE,112,0.0,0.0,35,0.00,,---,0.00,VWS V14.01,2013-05-26 11:23:00,
2013-05-26 05:28:00,43.9,18.0,21.79,ESE,112,0.0,0.0,35,0.00,,---,0.00,VWS V14.01,2013-05-26 11:28:00,
2013-05-26 05:33:00,43.3,17.5,21.79,ESE,112,0.0,0.0,35,0.00,,---,0.00,VWS V14.01,2013-05-26 11:33:00,
2013-05-26 05:38:00,43.5,17.7,21.79,ESE,112,0.0,0.0,35,0.00,,---,0.00,VWS V14.01,2013-05-26 11:38:00,
2013-05-26 05:43:00,43.0,17.9,21.79,ESE,112,0.0,0.0,36,0.00,,---,0.00,VWS V14.01,2013-05-26 11:43:00,
2013-05-26 05:48:00,42.8,18.4,21.79,ESE,112,0.0,0.0,37,0.00,,---,0.00,VWS V14.01,2013-05-26 11:48:00,
2013-05-26 05:53:00,42.1,18.3,21.79,ESE,112,0.0,0.0,38,0.00,,---,0.00,VWS V14.01,2013-05-26 11:53:00,
2013-05-26 05:58:00,41.7,18.0,21.79,ESE,112,0.0,0.0,38,0.00,,---,0.00,VWS V14.01,2013-05-26 11:58:00,
2013-05-26 06:04:00,41.5,17.8,21.82,ESE,112,0.0,0.0,38,0.00,,---,0.00,VWS V14.01,2013-05-26 12:04:00,
2013-05-26 06:09:00,41.4,17.7,21.82,ESE,112,0.0,0.0,38,0.00,,---,0.00,VWS V14.01,2013-05-26 12:09:00,
2013-05-26 06:14:00,41.4,17.7,21.82,ESE,112,0.0,0.0,38,0.00,,---,0.00,VWS V14.01,2013-05-26 12:14:00,
2013-05-26 06:19:00,41.5,17.8,21.82,ESE,112,0.0,0.0,38,0.00,,---,0.00,VWS V14.01,2013-05-26 12:19:00,
2013-05-26 06:24:00,41.5,18.4,21.82,ESE,112,0.0,0.0,39,0.00,,---,0.00,VWS V14.01,2013-05-26 12:24:00,
2013-05-26 06:29:00,41.7,18.6,21.82,ESE,112,0.0,0.0,39,0.00,,---,0.00,VWS V14.01,2013-05-26 12:29:00,
2013-05-26 06:34:00,42.3,19.1,21.82,ESE,112,0.0,0.0,39,0.00,,---,0.00,VWS V14.01,2013-05-26 12:34:00,
2013-05-26 06:40:00,42.1,18.9,21.82,ESE,112,0.0,0.0,39,0.00,,---,0.00,VWS V14.01,2013-05-26 12:40:00,
2013-05-26 06:45:00,42.8,19.6,21.82,ESE,112,0.0,0.0,39,0.00,,---,0.00,VWS V14.01,2013-05-26 12:45:00,
2013-05-26 06:50:00,43.5,20.2,21.82,ESE,112,0.0,0.0,39,0.00,,---,0.00,VWS V14.01,2013-05-26 12:50:00,
2013-05-26 06:55:00,43.5,20.2,21.82,ESE,112,0.0,0.0,39,0.00,,---,0.00,VWS V14.01,2013-05-26 12:55:00,
2013-05-26 07:00:00,43.7,20.4,21.82,ESE,112,0.0,0.0,39,0.00,,---,0.00,VWS V14.01,2013-05-26 13:00:00,
2013-05-26 07:05:00,43.9,21.7,21.82,ESE,112,0.0,0.0,41,0.00,,---,0.00,VWS V14.01,2013-05-26 13:05:00,
2013-05-26 07:10:00,44.2,22.0,21.82,ESE,112,0.0,0.0,41,0.00,,---,0.00,VWS V14.01,2013-05-26 13:10:00,
2013-05-26 07:15:00,44.6,22.4,21.82,ESE,112,0.0,0.0,41,0.00,,---,0.00,VWS V14.01,2013-05-26 13:15:00,
2013-05-26 07:20:00,45.7,23.4,21.82,ESE,112,0.0,0.0,41,0.00,,---,0.00,VWS V14.01,2013-05-26 13:20:00,
2013-05-26 07:25:00,46.8,22.5,21.82,ESE,112,0.0,0.0,38,0.00,,---,0.00,VWS V14.01,2013-05-26 13:25:00,
2013-05-26 07:30:00,47.3,23.0,21.82,ESE,112,0.0,0.0,38,0.00,,---,0.00,VWS V14.01,2013-05-26 13:30:00,
2013-05-26 07:35:00,47.7,23.9,21.82,ESE,112,0.0,0.0,39,0.00,,---,0.00,VWS V14.01,2013-05-26 13:35:00,
2013-05-26 07:40:00,48.6,25.4,21.82,ESE,112,0.0,0.0,40,0.00,,---,0.00,VWS V14.01,2013-05-26 13:40:00,
2013-05-26 07:45:00,49.3,25.4,21.82,ESE,112,0.0,0.0,39,0.00,,---,0.00,VWS V14.01,2013-05-26 13:45:00,
2013-05-26 07:50:00,50.0,25.4,21.82,ESE,112,0.0,0.0,38,0.00,,---,0.00,VWS V14.01,2013-05-26 13:50:00,
2013-05-26 07:55:00,50.9,25.6,21.82,ESE,112,0.0,0.0,37,0.00,,---,0.00,VWS V14.01,2013-05-26 13:55:00,
2013-05-26 08:00:00,51.6,26.2,21.82,ESE,112,0.0,0.0,37,0.00,,---,0.00,VWS V14.01,2013-05-26 14:00:00,
2013-05-26 08:05:00,52.5,27.0,21.82,ESE,112,0.0,0.0,37,0.00,,---,0.00,VWS V14.01,2013-05-26 14:05:00,
2013-05-26 08:10:00,53.1,27.5,21.82,ESE,112,0.0,0.0,37,0.00,,---,0.00,VWS V14.01,2013-05-26 14:10:00,
2013-05-26 08:15:00,54.0,27.6,21.82,ESE,112,0.0,0.0,36,0.00,,---,0.00,VWS V14.01,2013-05-26 14:15:00,
2013-05-26 08:20:00,54.1,28.5,21.82,ESE,112,0.0,0.0,37,0.00,,---,0.00,VWS V14.01,2013-05-26 14:20:00,
2013-05-26 08:25:00,54.5,28.8,21.82,ESE,112,0.0,0.0,37,0.00,,---,0.00,VWS V14.01,2013-05-26 14:25:00,
2013-05-26 08:30:00,54.9,29.1,21.82,ESE,112,0.0,0.0,37,0.00,,---,0.00,VWS V14.01,2013-05-26 14:30:00,
2013-05-26 08:35:00,55.6,28.4,21.82,ESE,112,0.0,0.0,35,0.00,,---,0.00,VWS V14.01,2013-05-26 14:35:00,
2013-05-26 08:41:00,56.1,28.9,21.82,ESE,112,0.0,0.0,35,0.00,,---,0.00,VWS V14.01,2013-05-26 14:41:00,
2013-05-26 08:46:00,56.8,28.8,21.82,ESE,112,0.0,0.0,34,0.00,,---,0.00,VWS V14.01,2013-05-26 14:46:00,
2013-05-26 08:51:00,57.7,29.6,21.82,ESE,112,0.0,0.0,34,0.00,,---,0.00,VWS V14.01,2013-05-26 14:51:00,
2013-05-26 08:56:00,58.3,27.8,21.82,ESE,112,0.0,2.2,31,0.00,,---,0.00,VWS V14.01,2013-05-26 14:56:00,
2013-05-26 09:01:00,58.8,26.6,21.82,ESE,112,0.0,0.0,29,0.00,,---,0.00,VWS V14.01,2013-05-26 15:01:00,
2013-05-26 09:06:00,59.4,25.4,21.82,ESE,112,0.0,0.0,27,0.00,,---,0.00,VWS V14.01,2013-05-26 15:06:00,
2013-05-26 09:11:00,59.7,25.7,21.82,ESE,112,0.0,2.2,27,0.00,,---,0.00,VWS V14.01,2013-05-26 15:11:00,
2013-05-26 09:16:00,60.4,25.4,21.82,ESE,112,0.0,3.6,26,0.00,,---,0.00,VWS V14.01,2013-05-26 15:16:00,
2013-05-26 09:21:00,60.6,25.6,21.82,ESE,112,2.7,2.7,26,0.00,,---,0.00,VWS V14.01,2013-05-26 15:21:00,
2013-05-26 09:26:00,60.8,24.8,21.82,SE,135,4.0,4.9,25,0.00,,---,0.00,VWS V14.01,2013-05-26 15:26:00,
2013-05-26 09:31:00,61.3,25.2,21.82,East,90,2.2,2.2,25,0.00,,---,0.00,VWS V14.01,2013-05-26 15:31:00,
2013-05-26 09:36:00,61.9,25.7,21.82,East,90,3.6,3.6,25,0.00,,---,0.00,VWS V14.01,2013-05-26 15:36:00,
2013-05-26 09:41:00,61.9,25.7,21.82,South,180,0.0,0.0,25,0.00,,---,0.00,VWS V14.01,2013-05-26 15:41:00,
2013-05-26 09:46:00,61.9,25.7,21.82,SW,225,2.7,2.7,25,0.00,,---,0.00,VWS V14.01,2013-05-26 15:46:00,
2013-05-26 09:51:00,62.2,26.0,21.82,SSW,202,0.0,0.0,25,0.00,,---,0.00,VWS V14.01,2013-05-26 15:51:00,
2013-05-26 09:56:00,62.1,24.9,21.82,SSW,202,2.7,4.9,24,0.00,,---,0.00,VWS V14.01,2013-05-26 15:56:00,
2013-05-26 10:01:00,62.1,24.9,21.82,NE,45,0.0,2.7,24,0.00,,---,0.00,VWS V14.01,2013-05-26 16:01:00,
2013-05-26 10:06:00,63.5,26.1,21.82,NE,45,0.0,0.0,24,0.00,,---,0.00,VWS V14.01,2013-05-26 16:06:00,
2013-05-26 10:11:00,63.5,26.1,21.82,SW,225,3.6,3.6,24,0.00,,---,0.00,VWS V14.01,2013-05-26 16:11:00,
2013-05-26 10:16:00,63.5,26.1,21.82,SSW,202,0.0,2.2,24,0.00,,---,0.00,VWS V14.01,2013-05-26 16:16:00,
2013-05-26 10:21:00,64.6,26.0,21.82,SE,135,3.6,4.9,23,0.00,,---,0.00,VWS V14.01,2013-05-26 16:21:00,
2013-05-26 10:27:00,64.2,26.7,21.82,NE,45,3.6,6.3,24,0.00,,---,0.00,VWS V14.01,2013-05-26 16:27:00,
2013-05-26 10:32:00,64.8,26.1,21.82,NE,45,0.0,2.7,23,0.00,,---,0.00,VWS V14.01,2013-05-26 16:32:00,
2013-05-26 10:37:00,66.0,27.2,21.82,SE,135,3.1,5.8,23,0.00,,---,0.00,VWS V14.01,2013-05-26 16:37:00,
2013-05-26 10:42:00,66.9,27.9,21.82,NW,315,0.0,2.2,23,0.00,,---,0.00,VWS V14.01,2013-05-26 16:42:00,
2013-05-26 10:47:00,68.4,28.1,21.82,SE,135,4.5,5.8,22,0.00,,---,0.00,VWS V14.01,2013-05-26 16:47:00,
2013-05-26 10:52:00,68.0,27.8,21.82,West,270,4.5,4.5,22,0.00,,---,0.00,VWS V14.01,2013-05-26 16:52:00,
2013-05-26 10:57:00,68.0,27.8,21.82,South,180,5.8,12.3,22,0.00,,---,0.00,VWS V14.01,2013-05-26 16:57:00,
2013-05-26 11:02:00,68.4,28.1,21.82,SE,135,8.3,8.3,22,0.00,,---,0.00,VWS V14.01,2013-05-26 17:02:00,
2013-05-26 11:07:00,67.8,27.6,21.82,East,90,4.9,7.2,22,0.00,,---,0.00,VWS V14.01,2013-05-26 17:07:00,
2013-05-26 11:12:00,68.0,27.8,21.82,East,90,2.7,2.7,22,0.00,,---,0.00,VWS V14.01,2013-05-26 17:12:00,
2013-05-26 11:17:00,68.0,27.8,21.82,East,90,5.4,6.3,22,0.00,,---,0.00,VWS V14.01,2013-05-26 17:17:00,
2013-05-26 11:22:00,68.5,28.2,21.82,SW,225,3.1,4.0,22,0.00,,---,0.00,VWS V14.01,2013-05-26 17:22:00,
2013-05-26 11:27:00,68.7,28.4,21.82,South,180,0.0,0.0,22,0.00,,---,0.00,VWS V14.01,2013-05-26 17:27:00,
2013-05-26 11:32:00,69.6,29.1,21.82,East,90,0.0,2.2,22,0.00,,---,0.00,VWS V14.01,2013-05-26 17:32:00,
2013-05-26 11:37:00,69.8,29.3,21.82,East,90,3.1,3.1,22,0.00,,---,0.00,VWS V14.01,2013-05-26 17:37:00,
2013-05-26 11:42:00,68.7,26.1,21.82,SSE,158,4.0,4.0,20,0.00,,---,0.00,VWS V14.01,2013-05-26 17:42:00,
2013-05-26 11:47:00,68.7,26.1,21.82,South,180,4.0,6.3,20,0.00,,---,0.00,VWS V14.01,2013-05-26 17:47:00,
2013-05-26 11:52:00,68.4,25.8,21.82,East,90,0.0,2.7,20,0.00,,---,0.00,VWS V14.01,2013-05-26 17:52:00,
2013-05-26 11:57:00,69.8,29.3,21.82,South,180,0.0,3.1,22,0.00,,---,0.00,VWS V14.01,2013-05-26 17:57:00,
2013-05-26 12:02:00,70.0,25.9,21.82,SW,225,0.0,3.1,19,0.00,,---,0.00,VWS V14.01,2013-05-26 18:02:00,
2013-05-26 12:08:00,68.2,25.6,21.82,SW,225,0.0,0.0,20,0.00,,---,0.00,VWS V14.01,2013-05-26 18:08:00,
2013-05-26 12:13:00,68.4,25.8,21.82,West,270,0.0,0.0,20,0.00,,---,0.00,VWS V14.01,2013-05-26 18:13:00,
2013-05-26 12:18:00,70.5,26.3,21.82,SE,135,5.8,8.1,19,0.00,,---,0.00,VWS V14.01,2013-05-26 18:18:00,
2013-05-26 12:23:00,70.3,26.2,21.82,East,90,3.1,4.9,19,0.00,,---,0.00,VWS V14.01,2013-05-26 18:23:00,
2013-05-26 12:28:00,70.3,26.2,21.82,East,90,0.0,3.1,19,0.00,,---,0.00,VWS V14.01,2013-05-26 18:28:00,
2013-05-26 12:33:00,70.2,26.0,21.82,SW,225,0.0,0.0,19,0.00,,---,0.00,VWS V14.01,2013-05-26 18:33:00,
2013-05-26 12:38:00,70.3,26.2,21.82,SW,225,0.0,0.0,19,0.00,,---,0.00,VWS V14.01,2013-05-26 18:38:00,
2013-05-26 12:43:00,70.0,25.9,21.82,East,90,3.1,3.1,19,0.00,,---,0.00,VWS V14.01,2013-05-26 18:43:00,
2013-05-26 12:48:00,70.0,25.9,21.82,South,180,3.1,3.1,19,0.00,,---,0.00,VWS V14.01,2013-05-26 18:48:00,
2013-05-26 12:53:00,69.3,26.5,21.82,SE,135,3.1,4.0,20,0.00,,---,0.00,VWS V14.01,2013-05-26 18:53:00,
2013-05-26 12:58:00,69.8,25.7,21.82,East,90,3.6,4.9,19,0.00,,---,0.00,VWS V14.01,2013-05-26 18:58:00,
2013-05-26 13:03:00,69.3,26.5,21.79,SE,135,0.0,4.9,20,0.00,,---,0.00,VWS V14.01,2013-05-26 19:03:00,
2013-05-26 13:08:00,69.4,29.0,21.79,East,90,3.1,3.1,22,0.00,,---,0.00,VWS V14.01,2013-05-26 19:08:00,
2013-05-26 13:13:00,68.7,28.4,21.79,East,90,4.0,7.6,22,0.00,,---,0.00,VWS V14.01,2013-05-26 19:13:00,
2013-05-26 13:18:00,67.8,27.6,21.79,SE,135,6.7,6.7,22,0.00,,---,0.00,VWS V14.01,2013-05-26 19:18:00,
2013-05-26 13:23:00,66.7,26.7,21.79,East,90,3.1,7.6,22,0.00,,---,0.00,VWS V14.01,2013-05-26 19:23:00,
2013-05-26 13:28:00,66.4,27.5,21.79,East,90,2.7,2.7,23,0.00,,---,0.00,VWS V14.01,2013-05-26 19:28:00,
2013-05-26 13:33:00,66.6,26.6,21.79,SE,135,5.4,5.4,22,0.00,,---,0.00,VWS V14.01,2013-05-26 19:33:00,
2013-05-26 13:38:00,65.5,26.7,21.79,SE,135,4.0,5.8,23,0.00,,---,0.00,VWS V14.01,2013-05-26 19:38:00,
2013-05-26 13:43:00,64.6,26.0,21.79,East,90,2.7,4.0,23,0.00,,---,0.00,VWS V14.01,2013-05-26 19:43:00,
2013-05-26 13:48:00,64.0,25.5,21.79,SE,135,4.0,4.0,23,0.00,,---,0.00,VWS V14.01,2013-05-26 19:48:00,
2013-05-26 13:53:00,63.9,26.4,21.79,North,0,2.2,6.3,24,0.00,,---,0.00,VWS V14.01,2013-05-26 19:53:00,
2013-05-26 13:58:00,64.2,26.7,21.79,East,90,4.0,4.0,24,0.00,,---,0.00,VWS V14.01,2013-05-26 19:58:00,
2013-05-26 14:04:00,63.3,24.9,21.79,East,90,3.6,8.3,23,0.00,,---,0.00,VWS V14.01,2013-05-26 20:04:00,
2013-05-26 14:09:00,63.5,25.1,21.79,SE,135,4.9,5.4,23,0.00,,---,0.00,VWS V14.01,2013-05-26 20:09:00,
2013-05-26 14:14:00,64.8,26.1,21.79,SE,135,2.7,2.7,23,0.00,,---,0.00,VWS V14.01,2013-05-26 20:14:00,
2013-05-26 14:19:00,65.3,26.6,21.79,South,180,0.0,4.0,23,0.00,,---,0.00,VWS V14.01,2013-05-26 20:19:00,
2013-05-26 14:24:00,64.9,26.3,21.79,SE,135,0.0,2.7,23,0.00,,---,0.00,VWS V14.01,2013-05-26 20:24:00,
2013-05-26 14:29:00,64.6,26.0,21.79,NW,315,0.0,0.0,23,0.00,,---,0.00,VWS V14.01,2013-05-26 20:29:00,
2013-05-26 14:34:00,64.8,26.1,21.79,NE,45,2.7,5.8,23,0.00,,---,0.00,VWS V14.01,2013-05-26 20:34:00,
2013-05-26 14:39:00,64.2,25.7,21.79,North,0,2.7,5.4,23,0.00,,---,0.00,VWS V14.01,2013-05-26 20:39:00,
2013-05-26 14:44:00,64.2,26.7,21.79,NE,45,5.4,5.4,24,0.00,,---,0.00,VWS V14.01,2013-05-26 20:44:00,
2013-05-26 14:49:00,64.6,26.0,21.79,ENE,68,3.1,3.6,23,0.00,,---,0.00,VWS V14.01,2013-05-26 20:49:00,
2013-05-26 14:54:00,64.8,26.1,21.79,South,180,4.9,4.9,23,0.00,,---,0.00,VWS V14.01,2013-05-26 20:54:00,
2013-05-26 14:59:00,64.6,26.0,21.79,NE,45,4.0,6.3,23,0.00,,---,0.00,VWS V14.01,2013-05-26 20:59:00,
2013-05-26 15:04:00,64.9,26.3,21.79,NE,45,3.6,3.6,23,0.00,,---,0.00,VWS V14.01,2013-05-26 21:04:00,
2013-05-26 15:09:00,65.5,26.7,21.79,SE,135,3.6,5.4,23,0.00,,---,0.00,VWS V14.01,2013-05-26 21:09:00,
2013-05-26 15:14:00,65.1,26.4,21.79,NE,45,0.0,2.7,23,0.00,,---,0.00,VWS V14.01,2013-05-26 21:14:00,
2013-05-26 15:19:00,65.1,26.4,21.79,North,0,3.6,3.6,23,0.00,,---,0.00,VWS V14.01,2013-05-26 21:19:00,
2013-05-26 15:24:00,64.9,26.3,21.79,South,180,4.0,4.9,23,0.00,,---,0.00,VWS V14.01,2013-05-26 21:24:00,
2013-05-26 15:29:00,64.9,26.3,21.79,North,0,2.7,6.3,23,0.00,,---,0.00,VWS V14.01,2013-05-26 21:29:00,
2013-05-26 15:34:00,64.4,25.8,21.79,East,90,3.1,5.4,23,0.00,,---,0.00,VWS V14.01,2013-05-26 21:34:00,
2013-05-26 15:39:00,64.2,26.7,21.79,SE,135,2.7,3.6,24,0.00,,---,0.00,VWS V14.01,2013-05-26 21:39:00,
2013-05-26 15:44:00,64.2,26.7,21.79,ENE,68,2.7,5.4,24,0.00,,---,0.00,VWS V14.01,2013-05-26 21:44:00,
2013-05-26 15:49:00,64.4,26.9,21.79,NE,45,2.2,4.0,24,0.00,,---,0.00,VWS V14.01,2013-05-26 21:49:00,
2013-05-26 15:54:00,64.2,26.7,21.79,North,0,3.6,3.6,24,0.00,,---,0.00,VWS V14.01,2013-05-26 21:54:00,
2013-05-26 15:59:00,63.7,27.2,21.79,NE,45,2.2,2.7,25,0.00,,---,0.00,VWS V14.01,2013-05-26 21:59:00,
2013-05-26 16:04:00,63.5,27.1,21.79,North,0,0.0,0.0,25,0.00,,---,0.00,VWS V14.01,2013-05-26 22:04:00,
2013-05-26 16:10:00,63.9,27.4,21.79,North,0,2.7,3.1,25,0.00,,---,0.00,VWS V14.01,2013-05-26 22:10:00,
2013-05-26 16:15:00,64.0,27.5,21.79,NE,45,3.6,3.6,25,0.00,,---,0.00,VWS V14.01,2013-05-26 22:15:00,
2013-05-26 16:20:00,63.5,27.1,21.79,North,0,0.0,4.9,25,0.00,,---,0.00,VWS V14.01,2013-05-26 22:20:00,
2013-05-26 16:25:00,63.9,27.4,21.79,SSE,158,0.0,0.0,25,0.00,,---,0.00,VWS V14.01,2013-05-26 22:25:00,
2013-05-26 16:30:00,63.7,27.2,21.79,South,180,0.0,2.2,25,0.00,,---,0.00,VWS V14.01,2013-05-26 22:30:00,
2013-05-26 16:35:00,63.7,27.2,21.79,SSE,158,0.0,0.0,25,0.00,,---,0.00,VWS V14.01,2013-05-26 22:35:00,
2013-05-26 16:40:00,63.0,27.6,21.79,SSE,158,0.0,0.0,26,0.00,,---,0.00,VWS V14.01,2013-05-26 22:40:00,
2013-05-26 16:45:00,62.4,28.0,21.79,North,0,2.2,5.8,27,0.00,,---,0.00,VWS V14.01,2013-05-26 22:45:00,
2013-05-26 16:50:00,61.9,27.6,21.82,North,0,0.0,0.0,27,0.00,,---,0.00,VWS V14.01,2013-05-26 22:50:00,
2013-05-26 16:55:00,61.7,27.4,21.82,North,0,0.0,0.0,27,0.00,,---,0.00,VWS V14.01,2013-05-26 22:55:00,
2013-05-26 17:00:00,61.5,27.2,21.82,NNW,338,3.6,3.6,27,0.00,,---,0.00,VWS V14.01,2013-05-26 23:00:00,
2013-05-26 17:05:00,61.5,27.2,21.79,North,0,0.0,0.0,27,0.00,,---,0.00,VWS V14.01,2013-05-26 23:05:00,
2013-05-26 17:10:00,61.3,27.1,21.79,North,0,2.2,4.0,27,0.00,,---,0.00,VWS V14.01,2013-05-26 23:10:00,
2013-05-26 17:15:00,61.5,27.2,21.79,WNW,292,0.0,3.1,27,0.00,,---,0.00,VWS V14.01,2013-05-26 23:15:00,
2013-05-26 17:20:00,61.5,27.2,21.79,North,0,3.6,5.4,27,0.00,,---,0.00,VWS V14.01,2013-05-26 23:20:00,
2013-05-26 17:25:00,61.3,28.0,21.79,North,0,0.0,0.0,28,0.00,,---,0.00,VWS V14.01,2013-05-26 23:25:00,
2013-05-26 17:30:00,61.9,28.4,21.79,North,0,0.0,0.0,28,0.00,,---,0.00,VWS V14.01,2013-05-26 23:30:00,
2013-05-26 17:35:00,62.8,28.3,21.79,NW,315,3.1,3.1,27,0.00,,---,0.00,VWS V14.01,2013-05-26 23:35:00,
2013-05-26 17:40:00,63.5,29.0,21.79,NE,45,3.1,3.1,27,0.00,,---,0.00,VWS V14.01,2013-05-26 23:40:00,
2013-05-26 17:45:00,64.2,29.6,21.79,North,0,0.0,5.4,27,0.00,,---,0.00,VWS V14.01,2013-05-26 23:45:00,
2013-05-26 17:50:00,64.8,30.0,21.79,NE,45,0.0,0.0,27,0.00,,---,0.00,VWS V14.01,2013-05-26 23:50:00,
2013-05-26 17:55:00,64.2,28.6,21.79,WNW,292,3.1,3.6,26,0.00,,---,0.00,VWS V14.01,2013-05-26 23:55:00,
2013-05-26 18:00:00,63.3,27.9,21.79,North,0,0.0,0.0,26,0.00,,---,0.00,VWS V14.01,2013-05-27 00:00:00,
2013-05-26 18:05:00,62.4,28.0,21.79,North,0,0.0,0.0,27,0.00,,---,0.00,VWS V14.01,2013-05-27 00:05:00,
2013-05-26 18:10:00,62.1,27.7,21.79,North,0,0.0,3.1,27,0.00,,---,0.00,VWS V14.01,2013-05-27 00:10:00,
2013-05-26 18:16:00,61.3,27.1,21.79,SE,135,2.2,3.1,27,0.00,,---,0.00,VWS V14.01,2013-05-27 00:16:00,
2013-05-26 18:21:00,60.8,26.6,21.79,SE,135,0.0,3.6,27,0.00,,---,0.00,VWS V14.01,2013-05-27 00:21:00,
2013-05-26 18:26:00,60.3,27.0,21.79,East,90,0.0,4.0,28,0.00,,---,0.00,VWS V14.01,2013-05-27 00:26:00,
2013-05-26 18:31:00,59.7,25.7,21.79,SE,135,0.0,4.0,27,0.00,,---,0.00,VWS V14.01,2013-05-27 00:31:00,
2013-05-26 18:36:00,59.4,26.3,21.79,East,90,3.6,7.6,28,0.00,,---,0.00,VWS V14.01,2013-05-27 00:36:00,
2013-05-26 18:41:00,59.0,26.0,21.79,South,180,3.1,3.1,28,0.00,,---,0.00,VWS V14.01,2013-05-27 00:41:00,
2013-05-26 18:46:00,58.5,25.5,21.79,SE,135,4.9,5.4,28,0.00,,---,0.00,VWS V14.01,2013-05-27 00:46:00,
2013-05-26 18:51:00,58.1,25.2,21.82,SSE,158,3.1,3.1,28,0.00,,---,0.00,VWS V14.01,2013-05-27 00:51:00,
2013-05-26 18:56:00,57.7,25.7,21.82,SE,135,0.0,0.0,29,0.00,,---,0.00,VWS V14.01,2013-05-27 00:56:00,
2013-05-26 19:01:00,57.2,25.2,21.82,SE,135,0.0,0.0,29,0.00,,---,0.00,VWS V14.01,2013-05-27 01:01:00,
2013-05-26 19:06:00,56.8,24.9,21.82,NE,45,0.0,0.0,29,0.00,,---,0.00,VWS V14.01,2013-05-27 01:06:00,
2013-05-26 19:11:00,56.7,25.6,21.82,NE,45,0.0,0.0,30,0.00,,---,0.00,VWS V14.01,2013-05-27 01:11:00,
2013-05-26 19:16:00,56.8,24.9,21.82,South,180,2.7,4.0,29,0.00,,---,0.00,VWS V14.01,2013-05-27 01:16:00,
2013-05-26 19:21:00,56.8,24.9,21.82,West,270,3.6,3.6,29,0.00,,---,0.00,VWS V14.01,2013-05-27 01:21:00,
2013-05-26 19:26:00,56.3,25.3,21.82,NW,315,0.0,0.0,30,0.00,,---,0.00,VWS V14.01,2013-05-27 01:26:00,
2013-05-26 19:31:00,55.9,25.8,21.82,NW,315,0.0,0.0,31,0.00,,---,0.00,VWS V14.01,2013-05-27 01:31:00,
2013-05-26 19:36:00,55.6,26.2,21.82,NW,315,0.0,0.0,32,0.00,,---,0.00,VWS V14.01,2013-05-27 01:36:00,
2013-05-26 19:41:00,55.2,26.6,21.82,NW,315,0.0,2.2,33,0.00,,---,0.00,VWS V14.01,2013-05-27 01:41:00,
2013-05-26 19:46:00,54.9,27.0,21.82,NW,315,0.0,0.0,34,0.00,,---,0.00,VWS V14.01,2013-05-27 01:46:00,
2013-05-26 19:51:00,54.7,27.6,21.82,NW,315,0.0,0.0,35,0.00,,---,0.00,VWS V14.01,2013-05-27 01:51:00,
2013-05-26 19:56:00,54.5,28.1,21.82,NW,315,0.0,0.0,36,0.00,,---,0.00,VWS V14.01,2013-05-27 01:56:00,
2013-05-26 20:01:00,54.5,27.4,21.82,SW,225,3.6,4.9,35,0.00,,---,0.00,VWS V14.01,2013-05-27 02:01:00,
2013-05-26 20:06:00,54.9,27.0,21.85,SE,135,3.6,8.7,34,0.00,,---,0.00,VWS V14.01,2013-05-27 02:06:00,
2013-05-26 20:11:00,55.4,26.8,21.85,West,270,4.0,4.0,33,0.00,,---,0.00,VWS V14.01,2013-05-27 02:11:00,
2013-05-26 20:16:00,55.0,27.2,21.85,NW,315,4.9,5.4,34,0.00,,---,0.00,VWS V14.01,2013-05-27 02:16:00,
2013-05-26 20:21:00,54.9,27.0,21.82,NW,315,0.0,0.0,34,0.00,,---,0.00,VWS V14.01,2013-05-27 02:21:00,
2013-05-26 20:27:00,54.5,27.4,21.82,NW,315,0.0,0.0,35,0.00,,---,0.00,VWS V14.01,2013-05-27 02:27:00,
2013-05-26 20:32:00,54.0,27.0,21.82,NW,315,0.0,0.0,35,0.00,,---,0.00,VWS V14.01,2013-05-27 02:32:00,
2013-05-26 20:37:00,53.2,27.0,21.82,NW,315,0.0,0.0,36,0.00,,---,0.00,VWS V14.01,2013-05-27 02:37:00,
2013-05-26 20:42:00,52.7,26.5,21.82,NW,315,0.0,0.0,36,0.00,,---,0.00,VWS V14.01,2013-05-27 02:42:00,
2013-05-26 20:47:00,52.3,26.2,21.82,NW,315,0.0,0.0,36,0.00,,---,0.00,VWS V14.01,2013-05-27 02:47:00,
2013-05-26 20:52:00,52.2,26.0,21.82,NW,315,0.0,0.0,36,0.00,,---,0.00,VWS V14.01,2013-05-27 02:52:00,
2013-05-26 20:57:00,52.0,25.9,21.82,NW,315,0.0,0.0,36,0.00,,---,0.00,VWS V14.01,2013-05-27 02:57:00,
2013-05-26 21:02:00,51.8,26.4,21.82,NNW,338,0.0,3.6,37,0.00,,---,0.00,VWS V14.01,2013-05-27 03:02:00,
2013-05-26 21:08:00,51.3,25.9,21.82,NNW,338,2.7,2.7,37,0.00,,---,0.00,VWS V14.01,2013-05-27 03:08:00,
2013-05-26 21:13:00,50.9,26.2,21.82,NE,45,2.7,2.7,38,0.00,,---,0.00,VWS V14.01,2013-05-27 03:13:00,
2013-05-26 21:18:00,50.5,25.9,21.82,North,0,0.0,0.0,38,0.00,,---,0.00,VWS V14.01,2013-05-27 03:18:00,
2013-05-26 21:23:00,50.2,25.6,21.82,North,0,0.0,0.0,38,0.00,,---,0.00,VWS V14.01,2013-05-27 03:23:00,
2013-05-26 21:28:00,49.6,25.1,21.82,North,0,0.0,0.0,38,0.00,,---,0.00,VWS V14.01,2013-05-27 03:28:00,
2013-05-26 21:33:00,48.7,24.9,21.82,North,0,0.0,0.0,39,0.00,,---,0.00,VWS V14.01,2013-05-27 03:33:00,
2013-05-26 21:39:00,48.0,24.9,21.82,North,0,0.0,0.0,40,0.00,,---,0.00,VWS V14.01,2013-05-27 03:39:00,
2013-05-26 21:44:00,47.3,24.8,21.82,North,0,0.0,0.0,41,0.00,,---,0.00,VWS V14.01,2013-05-27 03:44:00,
2013-05-26 21:49:00,46.8,24.9,21.82,North,0,0.0,0.0,42,0.00,,---,0.00,VWS V14.01,2013-05-27 03:49:00,
2013-05-26 21:54:00,46.0,24.8,21.82,North,0,0.0,0.0,43,0.00,,---,0.00,VWS V14.01,2013-05-27 03:54:00,
2013-05-26 21:59:00,45.3,24.7,21.82,North,0,0.0,0.0,44,0.00,,---,0.00,VWS V14.01,2013-05-27 03:59:00,
2013-05-26 22:01:00,44.8,24.8,21.82,North,0,0.0,0.0,45,0.00,,---,0.00,VWS V14.01,2013-05-27 04:01:00,
2013-05-26 22:02:00,44.8,24.8,21.82,North,0,0.0,0.0,45,0.00,,---,0.00,VWS V14.01,2013-05-27 04:02:00,
2013-05-26 22:04:00,44.4,25.0,21.82,North,0,0.0,0.0,46,0.00,,---,0.00,VWS V14.01,2013-05-27 04:04:00,
2013-05-26 22:06:00,44.2,24.8,21.82,North,0,0.0,0.0,46,0.00,,---,0.00,VWS V14.01,2013-05-27 04:06:00,
2013-05-26 22:11:00,44.1,24.6,21.82,North,0,0.0,0.0,46,0.00,,---,0.00,VWS V14.01,2013-05-27 04:11:00,
2013-05-26 22:16:00,43.3,24.5,21.82,North,0,0.0,0.0,47,0.00,,---,0.00,VWS V14.01,2013-05-27 04:16:00,
2013-05-26 22:21:00,44.1,24.1,21.82,North,0,0.0,0.0,45,0.00,,---,0.00,VWS V14.01,2013-05-27 04:21:00,
2013-05-26 22:26:00,44.6,24.6,21.82,North,0,0.0,0.0,45,0.00,,---,0.00,VWS V14.01,2013-05-27 04:26:00,
2013-05-26 22:31:00,44.6,24.6,21.82,North,0,0.0,0.0,45,0.00,,---,0.00,VWS V14.01,2013-05-27 04:31:00,
2013-05-26 22:36:00,44.8,24.2,21.82,North,0,0.0,0.0,44,0.00,,---,0.00,VWS V14.01,2013-05-27 04:36:00,
2013-05-26 22:41:00,44.8,24.8,21.82,North,0,0.0,0.0,45,0.00,,---,0.00,VWS V14.01,2013-05-27 04:41:00,
2013-05-26 22:46:00,45.1,25.1,21.82,North,0,2.7,2.7,45,0.00,,---,0.00,VWS V14.01,2013-05-27 04:46:00,
2013-05-26 22:51:00,45.7,25.0,21.82,NNE,22,0.0,0.0,44,0.00,,---,0.00,VWS V14.01,2013-05-27 04:51:00,
2013-05-26 22:56:00,45.7,25.0,21.82,NNE,22,0.0,0.0,44,0.00,,---,0.00,VWS V14.01,2013-05-27 04:56:00,
2013-05-26 23:01:00,45.7,24.5,21.82,NNE,22,0.0,0.0,43,0.00,,---,0.00,VWS V14.01,2013-05-27 05:01:00,
2013-05-26 23:06:00,45.9,25.2,21.82,NNE,22,0.0,0.0,44,0.00,,---,0.00,VWS V14.01,2013-05-27 05:06:00,
2013-05-26 23:11:00,45.5,24.3,21.82,NNE,22,0.0,0.0,43,0.00,,---,0.00,VWS V14.01,2013-05-27 05:11:00,
2013-05-26 23:16:00,45.7,25.0,21.82,NNE,22,0.0,0.0,44,0.00,,---,0.00,VWS V14.01,2013-05-27 05:16:00,
2013-05-26 23:21:00,45.5,24.3,21.79,NNE,22,0.0,0.0,43,0.00,,---,0.00,VWS V14.01,2013-05-27 05:21:00,
2013-05-26 23:27:00,45.3,24.2,21.79,NNE,22,0.0,0.0,43,0.00,,---,0.00,VWS V14.01,2013-05-27 05:27:00,
2013-05-26 23:32:00,45.5,24.3,21.79,NNE,22,0.0,0.0,43,0.00,,---,0.00,VWS V14.01,2013-05-27 05:32:00,
2013-05-26 23:37:00,45.3,23.6,21.79,NNE,22,0.0,0.0,42,0.00,,---,0.00,VWS V14.01,2013-05-27 05:37:00,
2013-05-26 23:42:00,45.3,23.6,21.79,NNE,22,0.0,0.0,42,0.00,,---,0.00,VWS V14.01,2013-05-27 05:42:00,
2013-05-26 23:47:00,45.0,23.8,21.79,NNE,22,0.0,0.0,43,0.00,,---,0.00,VWS V14.01,2013-05-27 05:47:00,
2013-05-26 23:52:00,45.1,24.0,21.79,NNE,22,0.0,0.0,43,0.00,,---,0.00,VWS V14.01,2013-05-27 05:52:00,
2013-05-26 23:57:00,44.2,23.7,21.79,NNE,22,0.0,0.0,44,0.00,,---,0.00,VWS V14.01,2013-05-27 05:57:00,